Regional Weather Roundup
Issued by NWS

Home | Current Version | Previous Version | Graphics & Text | Print | Product List | Glossary On
Versions: 1 2 3 4 5 6 7 8 9 10 11 12 13 14 15 16 17 18 19 20 21 22 23 24 25 26 27
000
ASUS45 KSLC 182010
RWRUT

UTAH REGIONAL WEATHER ROUNDUP
NATIONAL WEATHER SERVICE SALT LAKE CITY UT
200 PM MDT FRI APR 18 2014

UTZ001>011-023>025-182100-

NORTHERN UTAH

CITY           SKY/WX    TMP DP  RH WIND       PRES   REMARKS
HILL AFB       PTSUNNY   59  40  49 N15       29.98S
LOGAN          LGT RAIN  48  43  82 W3        30.01F
OGDEN          CLOUDY    60  41  49 N13       29.97S
PROVO AIRPORT  PTSUNNY   70  30  23 W12G18    29.93F
SALT LAKE CITY CLOUDY    61  40  45 N16       29.97R
VERNAL         MOSUNNY   70  24  17 SW15G26   29.91F
WENDOVER       CLOUDY    64  39  39 SE7       29.95S
HEBER CITY     CLOUDY    64  23  20 SW21      29.94F
WEST JORDAN    SUNNY     57  46  67 NW20      29.98R

$$

UTZ012>022-026-027-182100-

SOUTHERN UTAH

CITY           SKY/WX    TMP DP  RH WIND       PRES   REMARKS
BRYCE CANYON   CLOUDY    61  20  20 S20       30.10F
CEDAR CITY     CLOUDY    67  19  16 SW16G24   29.99F
MILFORD        PTSUNNY   73  18  12 SW24G32   29.95F
MOAB/CYNLANDS  SUNNY     76  21  12 SW14G21   29.92F
PRICE          PTSUNNY   70  20  15 S7G17     29.98F
ST GEORGE      CLOUDY    79  27  14 W6        29.90S
KANAB            N/A     68  21  17 S14       30.05S

$$

REGIONAL REPORTS     COLORADO/ARIZONA

CITY           SKY/WX    TMP DP  RH WIND       PRES   REMARKS
CRAIG, CO      MOSUNNY   70  25  18 W24G38    29.95F
GRAND JUNCTION MOSUNNY   73  31  21 W16       29.94F
RIFLE          MOSUNNY   71  26  18 NW12      29.97F
MONTROSE       PTSUNNY   72  25  17 W6        30.00F
CORTEZ         SUNNY     74  20  13 SW15G26   30.05F
PAGE, AZ       CLOUDY    75  21  13 VRB3      29.96F
GRAND CANYON   CLOUDY    58  25  28 S7        30.12F
KINGMAN        CLOUDY    75  24  15 S22G30    29.95F
FLAGSTAFF      PTSUNNY   58  26  29 SW18G29   30.13F

$$

REGIONAL REPORTS    NEVADA/IDAHO/WYOMING

CITY           SKY/WX    TMP DP  RH WIND       PRES   REMARKS
LAS VEGAS, NV  CLOUDY    78  27  15 S13       29.84S
ELY            MOSUNNY   66  24  20 S8        29.97F
ELKO           MOSUNNY   59  37  44 VRB3      29.98F
POCATELLO, ID  PTSUNNY   53  35  50 SW26G35   29.98F
BURLEY         MOSUNNY   56  36  47 W15G25    29.98F
EVANSTON, WY   PTSUNNY   60  25  26 W24G40    29.99R
ROCK SPRINGS   PTSUNNY   70  16  12 SW28G44   29.90R

$$



USA.gov is the U.S. government's official web portal to all federal, state and local government web resources and services.